Location: ??????
(44.5958°N, 34.0092°E)
Time: 05:16:28
(UTC+00:00)

Daily predictions for brighter satellites

Satellite Brightness Start Highest point End
(mag) Time Altitude Azimuth Time Altitude Azimuth Time Altitude Azimuth
Cosmos 1892 2.8 00:02:00 24° S 00:04:11 69° E 00:07:57 10° NNE
STARLINK-60 2.8 00:01:48 10° WNW 00:05:00 89° NNE 00:08:12 10° SE
STARLINK-1029 3.8 00:03:21 22° W 00:05:01 44° NNW 00:08:06 10° NE
Cosmos 2322 Rocket 2.2 00:02:31 22° SSW 00:06:11 78° ESE 00:11:48 10° NNE
IRS-1D 3.6 00:01:24 10° NNE 00:06:43 85° ESE 00:10:22 20° SSW
STARLINK-1288 3.6 00:05:18 28° SW 00:07:23 76° SE 00:11:32 10° ENE
ERS-2 4.2 00:04:42 10° SE 00:07:49 27° ENE 00:10:59 10° N
In-Cosmos 22 Rocket 4.2 00:04:19 19° S 00:08:26 83° E 00:13:57 10° NNE
Nadezhda 3 Rocket 4.0 00:02:16 10° N 00:08:37 77° W 00:14:22 13° S
STARLINK-34 4.3 00:08:10 15° W 00:10:14 32° NNW 00:13:05 10° NE
NOSS 2-1 (C) 3.1 00:09:37 28° WSW 00:11:10 62° NW 00:14:44 10° NNE
STARLINK-1308 3.5 00:10:07 26° SW 00:12:24 83° SE 00:16:33 10° ENE
STARLINK-62 4.4 00:10:19 14° W 00:12:31 32° NNW 00:15:23 10° NE
Cosmos 1400 Rocket 4.4 00:11:24 10° NW 00:14:23 19° W 00:15:19 18° WSW
USA 229 DEB 3.9 00:07:17 10° NW 00:14:32 67° WSW 00:22:06 10° SSE
USA 229 3.9 00:07:24 10° NW 00:14:39 67° WSW 00:22:12 10° SSE
ARIANE 5 R/B 3.2 00:10:24 10° NNE 00:15:15 48° E 00:19:58 10° S
NOSS 2-1 (D) 3.3 00:14:21 25° WSW 00:16:04 54° NW 00:19:37 10° NNE
NOSS 3-1 (C) 4.1 00:08:32 10° NW 00:16:04 62° WSW 00:24:39 10° SSE
STARLINK-64 3.7 00:16:28 19° WSW 00:18:50 55° NNW 00:22:22 10° NE
STARLINK-61 3.5 00:18:32 25° SW 00:20:43 73° SE 00:24:38 10° ENE
Meteor 2-2 Rocket 4.5 00:15:14 10° NNW 00:21:11 61° W 00:26:31 13° S
STARLINK-1278 3.7 00:18:43 20° WSW 00:21:35 77° NNW 00:25:52 10° NE
STARLINK-1304 3.6 00:19:39 21° WSW 00:22:19 86° NW 00:26:29 10° NE
STARLINK-1280 3.8 00:20:29 19° WSW 00:23:26 75° NNW 00:27:42 10° NE
NOSS 3-1 (A) 4.1 00:16:02 10° NW 00:23:41 79° SW 00:32:24 10° SSE
Cosmos 2221 3.1 00:20:27 10° NNW 00:24:33 40° W 00:27:11 20° SSW
Resurs 1-4 Rocket 3.1 00:20:24 10° N 00:25:10 35° WNW 00:28:43 16° WSW
Cosmos 1842 Rocket 4.5 00:22:38 10° NNW 00:26:37 32° W 00:28:59 19° SW
STARLINK-1444 1.9 00:24:25 10° WNW 00:26:38 70° SW 00:28:58 10° SE
STARLINK-1452 1.9 00:25:02 10° WNW 00:27:14 69° SW 00:29:35 10° SE
STARLINK-1450 1.8 00:26:18 10° WNW 00:28:28 65° SW 00:30:45 10° SE
STARLINK-1436 (VISORSAT) 1.9 00:26:18 10° WNW 00:28:30 66° SW 00:30:50 10° SE
STARLINK-1392 1.8 00:26:24 10° WNW 00:28:35 65° SW 00:30:52 10° SE
STARLINK-1399 1.8 00:26:25 10° WNW 00:28:35 65° SW 00:30:53 10° SE
STARLINK-1398 1.9 00:26:23 10° WNW 00:28:36 66° SW 00:30:55 10° SE
STARLINK-1415 1.8 00:26:26 10° WNW 00:28:36 65° SW 00:30:53 10° SE
STARLINK-1394 1.8 00:26:26 10° WNW 00:28:36 65° SW 00:30:54 10° SE
STARLINK-1414 1.9 00:26:24 10° WNW 00:28:36 66° SW 00:30:55 10° SE
STARLINK-1395 1.8 00:26:26 10° WNW 00:28:36 65° SW 00:30:54 10° SE
STARLINK-1393 1.8 00:26:26 10° WNW 00:28:37 65° SW 00:30:54 10° SE
STARLINK-1416 1.9 00:26:25 10° WNW 00:28:37 66° SW 00:30:56 10° SE
STARLINK-1396 1.8 00:26:27 10° WNW 00:28:37 65° SW 00:30:55 10° SE
STARLINK-1397 1.8 00:26:27 10° WNW 00:28:37 65° SW 00:30:55 10° SE
STARLINK-1401 1.8 00:26:27 10° WNW 00:28:37 65° SW 00:30:55 10° SE
STARLINK-1404 1.8 00:26:28 10° WNW 00:28:38 65° SW 00:30:56 10° SE
STARLINK-1408 1.9 00:26:26 10° WNW 00:28:38 66° SW 00:30:57 10° SE
STARLINK-1453 1.8 00:26:28 10° WNW 00:28:38 65° SW 00:30:56 10° SE
STARLINK-1419 1.9 00:26:27 10° WNW 00:28:39 66° SW 00:30:58 10° SE
STARLINK-1402 1.8 00:26:29 10° WNW 00:28:40 65° SW 00:30:57 10° SE
STARLINK-1417 1.8 00:26:29 10° WNW 00:28:40 65° SW 00:30:57 10° SE
STARLINK-1413 1.8 00:26:30 10° WNW 00:28:41 65° SW 00:30:58 10° SE
STARLINK-1406 1.8 00:26:31 10° WNW 00:28:41 65° SW 00:30:58 10° SE
STARLINK-1420 1.9 00:26:29 10° WNW 00:28:41 66° SW 00:31:00 10° SE
STARLINK-1422 1.9 00:26:30 10° WNW 00:28:42 66° SW 00:31:02 10° SE
STARLINK-1460 1.9 00:26:30 10° WNW 00:28:42 65° SW 00:31:02 10° SE
STARLINK-1440 1.8 00:26:32 10° WNW 00:28:43 65° SW 00:31:00 10° SE
STARLINK-1445 1.8 00:26:33 10° WNW 00:28:43 65° SW 00:31:01 10° SE
STARLINK-1458 1.9 00:26:31 10° WNW 00:28:43 66° SW 00:31:02 10° SE
STARLINK-1443 1.8 00:26:34 10° WNW 00:28:44 65° SW 00:31:02 10° SE
STARLINK-1454 1.8 00:26:34 10° WNW 00:28:44 65° SW 00:31:02 10° SE
STARLINK-1437 1.9 00:26:33 10° WNW 00:28:45 65° SW 00:31:04 10° SE
STARLINK-1457 1.8 00:26:35 10° WNW 00:28:45 65° SW 00:31:02 10° SE
STARLINK-1456 1.8 00:26:35 10° WNW 00:28:46 65° SW 00:31:03 10° SE
STARLINK-1451 1.8 00:26:36 10° WNW 00:28:46 65° SW 00:31:03 10° SE
STARLINK-1446 1.9 00:26:34 10° WNW 00:28:46 66° SW 00:31:06 10° SE
STARLINK-1442 1.8 00:26:37 10° WNW 00:28:47 65° SW 00:31:04 10° SE
STARLINK-1405 1.9 00:26:39 10° WNW 00:28:49 65° SW 00:31:07 10° SE
STARLINK-1421 1.9 00:26:39 10° WNW 00:28:49 65° SW 00:31:07 10° SE
STARLINK-1447 1.9 00:26:37 10° WNW 00:28:49 65° SW 00:31:09 10° SE
STARLINK-1455 1.9 00:26:37 10° WNW 00:28:50 65° SW 00:31:09 10° SE
STARLINK-1400 1.9 00:26:40 10° WNW 00:28:50 65° SW 00:31:07 10° SE
STARLINK-1410 1.9 00:26:40 10° WNW 00:28:50 65° SW 00:31:07 10° SE
STARLINK-1423 1.9 00:26:38 10° WNW 00:28:50 65° SW 00:31:09 10° SE
STARLINK-1407 1.9 00:26:40 10° WNW 00:28:50 65° SW 00:31:08 10° SE
STARLINK-1441 1.9 00:26:38 10° WNW 00:28:50 65° SW 00:31:10 10° SE
STARLINK-1439 1.9 00:26:41 10° WNW 00:28:51 65° SW 00:31:08 10° SE
STARLINK-1449 1.9 00:26:39 10° WNW 00:28:51 65° SW 00:31:11 10° SE
STARLINK-1448 1.9 00:26:39 10° WNW 00:28:52 65° SW 00:31:11 10° SE
STARLINK-1409 1.9 00:26:41 10° WNW 00:28:52 65° SW 00:31:09 10° SE
STARLINK-1351 1.9 00:26:42 10° WNW 00:28:53 65° SW 00:31:10 10° SE
STARLINK-1418 1.9 00:26:42 10° WNW 00:28:53 65° SW 00:31:10 10° SE
STARLINK-1434 1.9 00:26:43 10° WNW 00:28:53 65° SW 00:31:10 10° SE
STARLINK-1370 1.9 00:26:42 10° WNW 00:28:53 65° SW 00:31:10 10° SE
STARLINK-1403 1.9 00:26:43 10° WNW 00:28:54 65° SW 00:31:12 10° SE
STARLINK-1433 1.9 00:26:44 10° WNW 00:28:55 65° SW 00:31:12 10° SE
STARLINK-1411 1.9 00:26:46 10° WNW 00:28:56 65° SW 00:31:14 10° SE
STARLINK-1438 1.9 00:26:46 10° WNW 00:28:56 65° SW 00:31:14 10° SE
STARLINK-1412 1.9 00:26:47 10° WNW 00:28:59 65° SW 00:31:19 10° SE
Cosmos 2237 4.5 00:24:16 15° S 00:29:02 66° ESE 00:34:44 10° NNE
STARLINK-25 4.2 00:28:06 19° S 00:29:56 33° SE 00:33:05 10° ENE
STARLINK-29 2.9 00:33:52 10° NW 00:37:05 84° NNE 00:40:15 10° ESE
STARLINK-1286 3.9 00:33:57 15° WSW 00:37:17 67° NNW 00:41:27 10° NE
GEOS 3 Rocket 4.0 00:34:05 10° SSE 00:38:57 42° WSW 00:43:57 10° NW
STARLINK-81 4.1 00:37:10 17° SSW 00:39:32 39° SE 00:42:58 10° ENE
SL-16 R/B 2.7 00:36:40 16° SW 00:41:05 49° WNW 00:46:37 10° NNE
STARLINK-54 3.9 00:38:55 18° SSW 00:41:20 45° SE 00:44:51 10° ENE
Cosmos 1844 Rocket 3.2 00:36:14 10° NNW 00:41:50 64° ENE 00:47:21 10° SE
Cosmos 1825 2.3 00:38:23 12° S 00:41:53 77° E 00:45:39 10° NNE
Cosmos 1125 Rocket 4.4 00:37:40 10° NW 00:42:04 28° W 00:45:45 13° SSW
STARLINK-1281 3.9 00:38:48 14° WSW 00:42:16 65° NNW 00:46:24 10° NE
STARLINK-77 4.0 00:40:18 17° SSW 00:42:45 42° SE 00:46:14 10° ENE
Cosmos 1408 2.6 00:40:11 16° SSW 00:43:04 65° W 00:46:44 10° N
COSMOS 2428 4.5 00:38:50 10° SSE 00:43:29 27° ESE 00:48:09 10° NE
Spot 4 Rocket 4.4 00:39:31 10° NNE 00:44:39 65° ESE 00:49:44 10° S
Cosmos 2341 Rocket 4.1 00:38:54 11° SSW 00:44:57 72° W 00:51:17 10° N
IRS-P3 4.3 00:40:33 10° N 00:45:50 63° WNW 00:50:40 12° SSW
STARLINK-1310 4.0 00:43:33 13° WSW 00:47:14 60° NNW 00:51:21 10° NE
STARLINK-79 3.8 00:45:01 16° SSW 00:47:39 47° SE 00:51:10 10° ENE
Cosmos 1315 Rocket 4.3 00:45:44 10° NW 00:48:41 21° W 00:50:44 14° SW
STARLINK-78 3.8 00:46:35 16° SSW 00:49:17 49° SE 00:52:49 10° ENE
Cosmos 2058 3.9 00:47:44 15° SW 00:50:43 33° WNW 00:54:34 10° N
STARLINK-57 3.7 00:48:15 16° SW 00:51:01 53° SE 00:54:35 10° ENE
STARLINK-1319 4.1 00:48:20 11° WSW 00:52:14 56° NNW 00:56:20 10° NE
COBE Rocket 4.0 00:47:17 10° S 00:52:19 69° W 00:57:30 10° NNW
CZ-2D R/B 3.7 00:48:37 10° NNW 00:52:29 21° WNW 00:56:19 10° WSW
STARLINK-49 3.7 00:49:43 15° SW 00:52:32 52° SE 00:56:05 10° ENE
CZ-4B R/B 4.4 00:51:16 10° ESE 00:53:07 15° ENE 00:55:00 10° NNE
STARLINK-27 3.7 00:51:18 15° SW 00:54:10 54° SE 00:57:43 10° ENE
STARLINK-1028 4.3 00:51:11 13° SSW 00:54:35 44° SE 00:58:32 10° ENE
STARLINK-74 3.6 00:52:51 14° SW 00:55:47 55° SE 00:59:21 10° ENE
STARLINK-1010 4.2 00:52:27 13° SSW 00:55:59 48° SE 01:00:05 10° ENE
STARLINK-1320 4.4 00:53:33 10° NW 00:56:33 40° NNE 00:59:31 10° E
Shenzhou-11 Module 1.5 00:54:44 13° W 00:56:47 55° S 00:59:11 10° ESE
STARLINK-1322 4.4 00:53:54 10° NW 00:56:53 41° NNE 00:59:52 10° E
STARLINK-1324 4.3 00:54:14 10° NW 00:57:13 41° NNE 01:00:12 10° E
STARLINK-1277 4.2 00:53:10 10° WSW 00:57:13 53° NNW 01:01:18 10° NE
STARLINK-39 3.6 00:54:26 14° SW 00:57:24 57° SE 01:01:00 10° ENE
STARLINK-1294 4.3 00:54:30 10° NW 00:57:30 41° NNE 01:00:31 10° E
STARLINK-1261 4.3 00:54:54 10° NW 00:57:54 41° NNE 01:00:53 10° E
Cosmos 1933 4.4 00:54:14 10° N 00:58:10 48° ENE 01:02:04 10° SSE
STARLINK-1325 4.3 00:55:15 10° NW 00:58:14 41° NNE 01:01:14 10° E
Cosmos 1959 Rocket 4.5 00:52:17 10° S 00:58:25 90° W 01:04:34 10° N
STARLINK-1333 4.3 00:55:36 10° NW 00:58:36 42° NNE 01:01:35 10° E
STARLINK-1334 4.3 00:55:55 10° NW 00:58:55 42° NNE 01:01:54 10° E
STARLINK-31 3.5 00:56:01 14° SW 00:59:04 60° SE 01:02:40 10° ENE
STARLINK-1326 4.3 00:56:16 10° NW 00:59:16 42° NNE 01:02:15 10° E
STARLINK-1021 4.2 00:56:00 12° SSW 00:59:35 48° SE 01:03:35 10° ENE
STARLINK-1323 4.3 00:56:35 10° NW 00:59:36 42° NNE 01:02:35 10° E
Cosmos 1538 Rocket 4.4 00:54:35 10° S 00:59:53 67° ESE 01:05:15 10° NNE
STARLINK-1349 4.3 00:56:54 10° NW 00:59:54 42° NNE 01:02:54 10° E
STARLINK-1336 4.2 00:57:15 10° NW 01:00:15 43° NNE 01:03:15 10° E
STARLINK-1331 4.2 00:57:37 10° NW 01:00:37 43° NNE 01:03:36 10° E
STARLINK-69 3.4 00:57:43 13° SW 01:00:50 68° SE 01:04:28 10° ENE
STARLINK-1344 4.2 00:57:55 10° NW 01:00:56 43° NNE 01:03:56 10° E
STARLINK-1343 4.2 00:58:16 10° NW 01:01:17 43° NNE 01:04:18 10° E
STARLINK-1346 4.2 00:58:34 10° NW 01:01:37 44° NNE 01:04:40 10° ESE
Landsat 5 3.9 00:57:13 10° SSE 01:01:43 73° ENE 01:06:10 10° N
STARLINK-1328 4.2 00:58:58 10° NW 01:01:59 44° NNE 01:04:59 10° ESE
STARLINK-1276 4.3 00:58:12 10° WSW 01:02:14 50° NNW 01:06:17 10° NE
STARLINK-1354 4.2 00:59:17 10° NW 01:02:19 44° NNE 01:05:19 10° ESE
STARLINK-21 3.4 00:59:09 13° SW 01:02:19 65° SE 01:05:56 10° ENE
STARLINK-1347 4.2 00:59:36 10° NW 01:02:38 44° NNE 01:05:38 10° ESE
STARLINK-1357 4.1 00:59:58 10° NW 01:03:00 45° NNE 01:06:01 10° ESE
STARLINK-1335 4.1 01:00:18 10° NW 01:03:19 45° NNE 01:06:20 10° ESE
STARLINK-1327 4.1 01:00:38 10° NW 01:03:40 45° NNE 01:06:41 10° ESE
STARLINK-1340 4.1 01:00:59 10° NW 01:04:01 45° NNE 01:07:01 10° ESE
STARLINK-45 3.3 01:00:53 12° SW 01:04:07 73° SE 01:07:45 10° ENE
STARLINK-1356 4.1 01:01:19 10° NW 01:04:21 46° NNE 01:07:22 10° ESE
STARLINK-1306 4.4 01:00:23 10° W 01:04:27 47° NNW 01:08:32 10° NE
STARLINK-1019 4.1 01:00:45 12° SW 01:04:29 52° SE 01:08:32 10° ENE
Cosmos 2360 Rocket 2.3 00:59:08 11° SSW 01:04:34 70° WNW 01:10:14 10° NNE
STARLINK-1345 4.1 01:01:39 10° NW 01:04:41 46° NNE 01:07:42 10° ESE
STARLINK-1355 4.1 01:01:59 10° NW 01:05:01 46° NNE 01:08:02 10° ESE
STARLINK-1321 4.1 01:02:18 10° NW 01:05:20 46° NNE 01:08:21 10° ESE
STARLINK-70 3.3 01:02:24 12° SW 01:05:40 73° SE 01:09:17 10° ENE
STARLINK-1358 4.0 01:02:41 10° NW 01:05:43 47° NNE 01:08:44 10° ESE
STARLINK-1332 4.0 01:02:59 10° NW 01:06:01 47° NNE 01:09:02 10° ESE
STARLINK-1348 4.0 01:03:18 10° NW 01:06:21 47° NNE 01:09:23 10° ESE
STARLINK-1330 4.0 01:03:40 10° NW 01:06:42 47° NNE 01:09:44 10° ESE
STARLINK-1363 4.0 01:03:58 10° NW 01:07:01 48° NNE 01:10:03 10° ESE
STARLINK-1305 4.4 01:03:11 10° W 01:07:12 47° NNW 01:11:13 10° NE
STARLINK-76 3.3 01:03:53 12° SW 01:07:13 72° SE 01:10:51 10° ENE
STARLINK-1337 4.0 01:04:20 10° NW 01:07:22 48° NNE 01:10:25 10° ESE
STARLINK-1342 4.0 01:04:41 10° NW 01:07:44 48° NNE 01:10:47 10° ESE
STARLINK-1364 4.0 01:05:01 10° NW 01:08:04 49° NNE 01:11:07 10° ESE
STARLINK-1376 3.9 01:05:21 10° NW 01:08:24 49° NNE 01:11:27 10° ESE
SL-8 Rocket 4.1 01:02:26 10° SSW 01:08:41 63° W 01:14:54 10° N
STARLINK-1360 3.9 01:05:41 10° NW 01:08:45 49° NNE 01:11:48 10° ESE
STARLINK-23 3.3 01:05:28 11° SW 01:08:52 74° SE 01:12:30 10° ENE
STARLINK-1361 3.9 01:06:02 10° NW 01:09:06 49° NNE 01:12:08 10° ESE
STARLINK-1367 3.9 01:06:19 10° NW 01:09:25 51° NNE 01:12:30 10° ESE
STARLINK-1012 4.0 01:05:32 11° SW 01:09:27 57° SE 01:13:32 10° ENE
STARLINK-1366 3.9 01:06:42 10° NW 01:09:45 50° NNE 01:12:48 10° ESE
STARLINK-32 3.3 01:07:01 11° SW 01:10:29 76° SE 01:14:07 10° ENE
Cosmos 2218 Rocket 4.1 01:04:27 10° SSW 01:10:48 73° W 01:17:14 10° N
STARLINK-40 3.3 01:08:35 11° SW 01:12:07 79° SE 01:15:45 10° ENE
STARLINK-52 3.0 01:09:21 10° WNW 01:12:29 52° SW 01:15:37 10° SE
Cosmos 1408 Rocket 4.0 01:08:36 10° S 01:12:51 64° E 01:17:07 10° NNE
Cosmos 1980 Rocket 4.5 01:11:28 10° WNW 01:13:37 12° NW 01:15:48 10° NNW
STARLINK-44 3.3 01:10:07 10° SW 01:13:42 81° SE 01:17:20 10° ENE
Cosmos 2333 Rocket 2.8 01:08:58 10° S 01:14:27 56° ESE 01:20:00 10° NNE
Cosmos 773 Rocket 4.2 01:09:21 10° SSW 01:14:32 63° WNW 01:19:49 10° NNE
CZ-4C R/B 3.1 01:11:48 10° S 01:15:24 68° WSW 01:19:02 10° NNW
STARLINK-37 3.3 01:11:53 10° SW 01:15:31 89° SE 01:19:10 10° ENE
SL-08 R/B 4.1 01:11:44 10° SSW 01:15:52 32° W 01:20:00 10° NNW
STARLINK-36 3.3 01:13:19 10° SW 01:16:57 85° SE 01:20:35 10° ENE
CZ-2D R/B 3.8 01:14:16 10° N 01:18:27 57° WNW 01:22:42 10° SSW
STARLINK-1369 4.5 01:15:07 10° NW 01:19:01 52° NNE 01:22:53 10° ESE
STARLINK-1026 3.8 01:15:17 10° SW 01:19:23 68° SE 01:23:31 10° ENE
STARLINK-63 3.3 01:16:44 10° WSW 01:20:21 86° NNW 01:23:59 10° NE
Cosmos 2322 3.8 01:15:13 10° SSW 01:20:56 88° ESE 01:26:42 10° NNE
STARLINK-35 3.3 01:18:15 10° WSW 01:21:52 87° NW 01:25:31 10° NE
STARLINK-71 3.6 01:18:42 10° WSW 01:22:43 87° NW 01:26:47 10° NE
Cosmos 2219 Rocket 2.7 01:17:25 10° S 01:22:54 61° ESE 01:28:24 10° NNE
STARLINK-1372 4.4 01:19:22 10° NW 01:23:16 55° NNE 01:27:11 10° ESE
STARLINK-51 3.3 01:19:53 10° WSW 01:23:30 84° NW 01:27:09 10° NE
STARLINK-1013 3.7 01:20:15 10° SW 01:24:22 74° SE 01:28:31 10° ENE
Cosmos 1782 4.4 01:21:03 10° N 01:24:51 39° ENE 01:28:36 10° SSE
STARLINK-30 3.3 01:21:31 10° WSW 01:25:08 82° NW 01:28:48 10° NE
SL-4 R/B 3.2 01:21:46 10° WNW 01:25:45 27° SW 01:29:33 10° S
